CO-66
1 32791U 08021J 11286.70295023 .00001982 00000-0 25355-3 0 1107
2 32791 097.8384 348.1464 0016346 145.0110 215.2157 14.82379584187061
RS-30
1 32953U 08025A 11286.94901453 .00000010 00000-0 00000 0 0 1666
2 32953 082.4966 088.8833 0019410 126.0577 234.2312 12.43015811153844
TACSAT-3
1 35001U 09028A 11286.85270727 .00046953 00000-0 69109-3 0 7223
2 35001 040.4522 169.9558 0017250 005.7319 354.3705 15.54413951135511
PHARMSAT
1 35002U 09028B 11285.85195372 .00035948 00000-0 56247-3 0 06786
2 35002 040.4686 174.8638 0019616 011.6946 348.4314 15.52775129135377
HAWKSAT1
1 35003U 09028C 11278.76493853 .05638703 71200-5 11831-2 0 08211
2 35003 040.4370 161.0594 0006849 275.9761 084.3784 16.29831142134897
CP6
1 35004U 09028D 11247.64656856 .16152067 73217-5 10011-2 0 7842
2 35004 040.4403 342.9642 0002956 038.0069 322.2231 16.41039951130139
METEOR-M
1 35865U 09049A 11287.14901486 -.00000011 00000-0 14684-4 0 8103
2 35865 098.6928 340.6506 0003315 053.3280 306.8200 14.21841675107497
RS-38
1 35869U 09049E 11287.06383742 .00000046 00000-0 40776-4 0 7890
2 35869 098.6900 340.5943 0005435 052.1372 308.0304 14.22024684107492
ARISSAT1
1 37772U 98067CK 11287.15592322 .00086968 00000-0 77644-3 0 2175
2 37772 051.6373 280.5412 0009019 340.7396 111.0950 15.67620984 11081
